SCP
0 0 0 0 0 0 0 0 0 0 0 0 0 0 0 0 0 0 0 0 0 0 0 0 0 0 0 0 0 -0 -0 0 0 -0 -0 -0 -0 0 -0 0 0 0 0
0 0 0 0 0 0 0 0 0 0 0 0 0 0 0 0 0 0 0 0 0 0 0 0 0 0 0 0 -0 0 -0 0 0 -0 -0 -0 -0 -0 -0 0 0 0 0
0 0 0 0 0 0 0 0 0 0 0 0 0 0 0 0 0 0 0 0 0 0 0 0 0 0 0 -0 -0 -0 -0 0 0 0 -0 -0 -0 -0 -0 -0 0 0 0
0 0 0 0 0 0 0 0 0 0 0 0 0 0 0 0 0 0 0 0 0 0 0 0 0 -0 -0 -0 0 0 0 0 0 0 -0 -0 -0 -0 -0 -0 0 0 0
0 0 0 0 0 0 0 0 0 0 0 0 0 0 0 0 0 0 0 0 0 0 0 0 -0 -0 -0 -0 0 0 0 0 0 0 -0 -0 -0 -0 -0 -0 0 0 0
0 0 0 0 0 0 0 0 0 0 0 0 0 0 0 0 0 0 0 0 0 0 0 0 0 0 0 0 0 0 0 0 0 0 -0 -0 -0 -0 -0 0 0 0 0
0 0 0 0 0 0 0 0 0 0 0 0 0 0 0 0 0 0 0 0 0 0 0 0 0 0 0 0 0 0 0 0 0 0 -0 -0 -0 -0 -0 -0 0 0 0
0 0 0 0 0 0 0 0 0 0 0 0 0 0 0 0 0 0 0 0 0 0 0 0 0 0 0 0 0 0 0 0 0 0 -0 -0 -0 -0 -0 -0 -0 0 0
0 0 0 0 0 0 0 0 0 0 0 0 0 0 0 0 -0 -0 0 0 0 0 0 0 0 0 0 0 0 0 0 0 0 0 -0 -0 0 -0 -0 -0 -0 0 0
0 0 0 0 0 0 0 0 0 0 0 0 0 0 0 0 -0 0 0 0 0 0 0 -0 -0 -0 0 0 0 0 -0 -0 -0 -0 -0 -0 -0 -0 0 -0 0 0 0
0 0 0 0 0 0 0 0 0 0 0 0 0 0 0 0 0 -0 0 0 0 0 0 0 -0 -0 0 0 0 0 0 0 -0 -0 -0 -0 -0 -0 -0 -0 0 0 0
0 0 0 0 0 0 0 0 0 0 0 0 0 0 0 0 0 0 -0 -0 0 0 -0 -0 -0 0 0 0 0 0 0 0 0 -0 -0 -0 -0 -0 -0 -0 -0 0 0
0 0 0 0 0 0 0 0 0 0 0 0 0 0 0 0 0 -0 -0 -0 0 0 0 -0 -0 -0 -0 0 0 0 0 0 0 -0 -0 -0 -0 -0 0 0 -0 0 0
0 0 0 0 0 0 0 0 0 0 0 0 0 0 0 0 0 0 -0 0 0 0 -0 -0 -0 0 0 0 0 0 0 0 0 -0 0 -0 -0 0 0 0 0 0 0
0 0 0 0 0 0 0 0 0 0 0 0 0 0 0 0 0 -0 -0 -0 0 0 0 0 0 0 0 0 0 0 0 0 0 0 -0 -0 0 0 0 0 0 0 0
0 0 0 0 0 0 0 0 0 0 0 0 0 0 0 0 -0 -0 -0 -0 -0 -0 0 0 0 0 0 0 0 0 0 0 0 -0 -0 0 0 0 0 0 0 0 0
0 0 0 0 0 0 0 0 0 0 0 0 0 0 0 0 -0 -0 -0 0 -0 -0 0 -0 0 0 0 0 0 0 0 0 0 0 0 0 0 0 0 0 0 0 0
0 0 0 0 0 0 0 -0 0 0 0 0 0 0 0 0 -0 -0 -0 0 0 -0 -0 -0 0 0 0 0 0 0 0 0 0 0 0 0 0 0 0 0 0 0 0
0 0 0 0 0 0 0 0 0 0 0 0 0 0 0 0 -0 -0 -0 -0 0 -0 -0 -0 0 0 0 0 0 0 0 0 0 0 0 0 0 0 0 0 0 0 0
0 0 0 0 0 0 0 0 0 0 0 0 0 0 0 0 -0 -0 -0 -0 -0 -0 -0 0 0 0 0 0 0 0 0 0 0 0 0 0 0 0 0 0 0 0 0
0 0 0 0 0 0 0 0 0 0 0 0 0 0 0 -0 -0 -0 -0 -0 -0 -0 -0 0 0 0 0 0 0 0 0 0 0 0 0 0 0 0 0 0 0 0 0
0 0 0 0 0 0 0 0 0 0 0 0 0 0 0 -0 -0 -0 -0 0 0 -0 -0 0 0 0 0 0 0 0 0 0 0 0 0 0 0 0 0 0 0 0 0
0 0 0 0 0 0 0 0 0 0 0 0 0 0 0 -0 -0 -0 -0 0 0 0 0 0 0 0 0 0 0 0 0 0 0 0 0 0 0 0 0 0 0 0 0
0 0 0 0 0 0 0 0 0 0 0 0 0 0 -0 -0 -0 -0 -0 0 0 -0 0 0 0 0 0 0 0 0 0 0 0 0 0 0 0 0 0 0 0 0 0
0 0 0 0 0 0 0 0 0 0 0 0 0 0 -0 -0 -0 -0 -0 0 0 0 -0 0 0 0 0 0 0 0 0 0 0 0 0 0 0 0 0 0 0 0 0
0 0 0 0 0 0 0 0 0 0 0 0 0 0 -0 -0 -0 -0 -0 -0 0 0 -0 0 -0 -0 0 0 0 0 0 0 0 0 0 0 0 0 0 0 0 0 0
Wind_Speed_500mb
40 35 36 38 42 47 53 61 67 74 78 81 83 84 87 90 92 98 101 102 102 96 86 82 89 76 87 89 89 96 89 86 97 83 75 88 94 88 98 103 63 113 108
41 36 37 38 42 47 54 62 69 77 80 81 83 85 86 89 95 100 104 103 96 90 83 77 84 76 80 78 82 75 89 101 86 88 76 79 78 87 84 90 70 91 103
41 36 35 39 43 48 55 62 68 75 78 78 82 85 86 89 97 98 99 100 93 84 82 77 78 75 84 84 84 82 80 94 80 76 79 82 73 89 84 95 98 63 109
40 35 34 38 43 50 58 63 68 72 76 79 81 85 85 89 93 95 89 83 82 80 78 74 73 73 77 75 80 79 75 85 73 62 69 72 61 65 67 70 68 75 112
36 32 33 36 44 53 59 64 67 70 74 77 83 85 85 88 92 83 75 81 84 85 82 79 76 82 78 75 75 70 71 74 62 68 72 81 73 50 54 73 102 67 112
34 30 32 37 45 52 57 61 66 71 73 75 79 83 85 86 83 67 69 78 80 81 82 83 83 82 82 76 76 78 77 82 82 51 66 68 81 84 80 59 74 68 106
29 26 30 38 44 49 54 59 62 68 72 75 78 80 83 82 75 66 67 71 74 76 76 77 77 76 82 84 75 72 73 78 90 70 70 78 72 75 82 86 96 94 126
25 23 28 37 42 47 51 55 59 65 69 74 76 77 80 79 72 67 69 72 76 77 74 74 75 83 91 89 83 79 75 63 91 79 75 75 74 74 74 85 86 91 113
21 21 28 34 38 45 48 52 56 63 67 71 75 76 79 86 73 69 71 75 70 72 70 70 67 84 70 68 73 81 75 87 84 74 92 95 90 85 85 86 107 93 106
16 19 26 30 36 42 48 51 54 58 65 72 77 75 83 86 75 69 68 79 79 79 78 82 79 74 69 75 72 76 79 87 88 91 98 102 98 98 92 84 84 61 127
12 17 22 27 34 41 42 49 56 55 60 69 78 83 84 79 83 62 74 74 78 79 81 81 79 66 63 58 60 72 77 67 75 68 77 87 90 91 88 84 93 98 122
12 16 18 24 31 37 42 47 51 56 63 73 78 83 86 82 72 72 77 72 74 82 85 84 82 66 65 56 55 56 65 70 69 75 81 85 94 90 83 73 96 107 143
13 12 14 20 27 33 38 45 49 53 61 72 76 84 91 94 80 82 84 83 81 77 72 70 72 72 73 66 56 58 58 68 71 72 82 86 89 88 74 61 94 117 141
12 8 11 14 19 27 36 42 45 52 59 66 72 77 83 88 95 96 97 99 81 75 74 69 56 54 58 62 59 50 53 68 78 80 76 71 74 80 66 73 118 123 122
11 6 8 14 19 25 32 37 42 43 43 49 57 61 80 86 87 82 82 81 68 74 57 39 24 24 32 36 46 48 44 55 56 63 55 61 73 73 61 108 118 115 108
9 4 4 13 21 25 23 22 32 38 41 41 42 48 60 61 71 74 74 64 59 61 52 61 52 38 28 26 30 28 39 47 43 50 66 73 76 68 67 102 117 122 116
9 4 3 10 17 21 27 32 35 28 37 42 44 50 52 58 67 71 72 60 59 65 77 70 71 65 54 42 40 31 21 30 54 66 61 68 66 57 80 93 107 117 107
10 3 3 8 13 18 23 30 36 41 44 41 43 55 63 65 66 69 80 81 87 88 88 81 74 80 71 58 52 47 34 26 33 39 43 48 57 63 87 97 105 108 111
11 4 4 7 10 14 21 27 31 34 37 43 44 47 61 62 71 78 86 96 98 96 93 91 82 82 81 71 60 57 45 35 25 25 34 43 56 80 90 104 102 97 114
15 8 3 4 6 11 16 20 25 30 35 42 50 56 64 63 75 86 89 92 96 98 97 92 96 82 92 86 75 72 56 40 29 20 23 42 68 89 92 97 107 97 110
19 12 8 5 7 10 15 22 27 30 33 39 44 50 46 59 69 77 83 87 89 94 100 101 96 99 96 100 96 88 73 49 32 21 11 43 70 87 88 95 103 108 115
22 17 13 10 8 9 13 19 22 26 32 34 37 41 45 53 61 67 73 79 84 86 91 100 103 107 104 107 104 96 90 65 44 28 11 33 57 81 91 95 99 100 103
24 21 18 15 11 9 13 14 17 21 28 31 35 39 46 52 57 62 67 72 79 85 89 95 103 109 113 107 101 101 98 78 54 35 19 21 51 67 87 91 97 97 100
28 25 21 17 13 11 10 10 14 20 23 26 31 36 43 48 52 56 60 67 74 78 83 89 99 105 115 112 105 101 101 79 54 35 18 10 35 59 77 80 81 89 95
30 25 22 19 14 11 7 10 14 16 18 22 28 33 38 43 46 51 54 58 65 73 78 82 87 98 107 113 106 100 102 93 74 48 31 10 16 40 52 60 68 75 82
30 26 24 19 15 11 8 8 10 11 14 20 26 31 36 40 44 48 52 56 58 62 69 74 79 87 96 108 111 102 98 100 90 78 55 37 15 19 37 51 56 65 76
Wind_Direction_500mb
248 263 278 289 298 307 312 313 315 316 315 315 312 311 311 311 311 307 304 303 299 294 287 280 278 276 271 278 267 250 255 255 258 261 262 265 269 270 246 247 242 230 234
245 260 277 290 298 306 313 315 318 315 313 312 312 311 311 311 311 308 307 304 297 293 286 281 277 276 273 274 265 265 264 253 271 259 255 264 267 271 264 258 260 231 229
246 260 276 289 302 310 314 316 315 313 313 314 312 312 313 313 311 310 307 302 298 290 286 281 279 276 276 274 275 258 259 253 269 247 259 266 267 264 265 259 262 261 218
245 260 277 293 305 311 314 316 316 316 317 317 315 314 316 315 313 312 306 303 303 296 291 285 281 277 279 278 272 261 254 262 276 237 255 265 272 260 271 267 262 228 199
245 263 282 297 306 312 316 319 321 321 321 319 318 317 320 319 316 314 305 300 295 290 286 284 282 283 278 273 272 268 260 259 268 252 255 261 267 269 264 262 249 240 176
244 266 283 300 310 317 321 325 326 323 323 321 320 320 321 320 322 310 304 299 294 289 288 287 286 285 281 271 266 262 257 258 256 267 249 257 262 265 264 263 253 251 171
246 267 292 306 315 322 327 327 326 324 323 321 321 324 324 329 328 314 308 300 298 296 292 289 286 283 279 277 274 262 253 254 246 246 256 260 262 264 259 264 255 268 182
241 271 298 312 321 326 327 327 327 325 323 323 324 328 330 333 332 318 315 307 303 296 291 287 290 291 291 276 273 265 254 249 239 240 241 254 261 265 263 269 255 257 171
243 281 307 317 324 323 326 327 328 324 324 324 329 334 335 339 334 322 319 314 312 308 304 293 285 285 285 276 266 264 261 239 238 246 249 252 258 268 264 271 254 200 163
246 293 309 315 321 324 328 327 328 325 327 331 332 341 345 341 332 323 326 316 309 310 304 294 288 284 285 280 262 258 258 248 242 244 244 251 257 264 262 266 265 245 163
259 295 307 317 324 324 328 331 328 328 333 335 339 346 344 341 334 328 326 321 315 310 304 300 296 289 284 288 262 261 254 259 254 252 256 257 260 261 264 266 247 243 173
272 296 308 319 325 326 331 332 329 335 340 343 347 342 344 341 334 331 329 324 317 308 302 294 287 282 284 285 272 263 262 249 251 257 255 256 264 256 264 246 245 218 190
252 284 304 321 321 326 332 333 336 343 349 348 344 342 343 344 337 338 334 329 323 316 307 296 284 280 280 276 265 258 254 244 248 249 253 258 254 267 267 238 223 210 183
218 248 285 307 323 336 339 339 345 351 354 349 341 340 340 342 341 342 338 335 335 334 324 305 288 286 282 275 273 270 240 232 242 247 247 257 262 269 256 227 193 184 176
197 218 297 327 344 350 350 348 354 358 354 341 343 342 349 341 344 340 339 338 341 341 342 5 352 305 295 292 283 278 260 244 254 242 247 256 265 269 264 190 184 176 173
196 205 327 343 349 348 0 15 1 -0 359 359 352 348 351 346 347 349 349 349 354 355 18 16 11 5 348 328 307 276 244 254 252 245 248 253 264 257 222 181 176 173 175
205 199 7 3 359 358 359 8 11 22 9 6 7 10 1 358 0 1 2 11 12 16 23 17 7 7 1 353 341 328 283 228 235 246 250 257 260 249 194 179 174 178 179
213 209 34 10 11 6 8 13 11 9 10 17 19 30 23 20 17 14 20 24 29 31 22 17 5 5 4 359 353 341 318 284 251 241 249 259 239 222 185 180 175 175 175
202 164 54 27 26 16 19 18 15 13 15 15 18 28 31 24 30 30 30 30 27 26 23 13 16 4 6 5 359 351 341 330 303 276 252 241 224 210 193 186 180 178 177
179 162 113 57 38 27 27 26 24 20 20 22 22 24 23 19 27 30 31 29 29 27 24 19 13 8 7 6 9 1 357 350 334 308 230 227 216 203 197 192 188 182 183
169 157 153 140 76 39 29 29 26 22 27 28 27 28 23 25 30 30 30 29 27 27 25 24 14 18 7 12 15 9 3 355 341 325 234 196 210 204 201 196 192 191 190
166 160 160 136 100 64 46 38 32 25 27 29 33 32 31 31 32 32 31 30 29 29 29 27 23 22 16 17 17 13 3 1 352 339 301 194 194 206 207 206 201 194 196
165 165 157 145 127 100 67 51 40 35 33 27 28 31 32 33 33 31 29 29 28 27 29 30 28 28 26 22 24 22 6 4 359 348 328 222 196 200 205 202 200 193 193
170 163 155 149 141 121 98 81 58 47 41 36 32 31 35 34 32 31 28 29 29 27 27 28 30 30 28 23 23 26 20 13 11 7 353 268 212 201 210 206 201 202 198
172 165 159 155 149 136 120 89 72 57 45 40 40 35 34 34 32 31 29 27 27 26 25 25 28 29 29 23 25 25 30 24 24 24 25 26 192 204 204 208 210 209 208
170 164 164 161 154 150 135 99 81 61 46 39 36 33 31 30 30 28 27 25 23 24 24 22 24 27 29 24 21 26 30 31 30 34 37 43 67 159 195 206 207 208 209
Wind_Speed_850mb
40 35 36 38 42 47 53 61 67 74 78 81 83 84 87 90 92 98 101 102 102 96 86 82 89 76 87 89 89 96 89 86 97 83 75 88 94 88 98 103 63 113 108
41 36 37 38 42 47 54 62 69 77 80 81 83 85 86 89 95 100 104 103 96 90 83 77 84 76 80 78 82 75 89 101 86 88 76 79 78 87 84 90 70 91 103
41 36 35 39 43 48 55 62 68 75 78 78 82 85 86 89 97 98 99 100 93 84 82 77 78 75 84 84 84 82 80 94 80 76 79 82 73 89 84 95 98 63 109
40 35 34 38 43 50 58 63 68 72 76 79 81 85 85 89 93 95 89 83 82 80 78 74 73 73 77 75 80 79 75 85 73 62 69 72 61 65 67 70 68 75 112
36 32 33 36 44 53 59 64 67 70 74 77 83 85 85 88 92 83 75 81 84 85 82 79 76 82 78 75 75 70 71 74 62 68 72 81 73 50 54 73 102 67 112
34 30 32 37 45 52 57 61 66 71 73 75 79 83 85 86 83 67 69 78 80 81 82 83 83 82 82 76 76 78 77 82 82 51 66 68 81 84 80 59 74 68 106
29 26 30 38 44 49 54 59 62 68 72 75 78 80 83 82 75 66 67 71 74 76 76 77 77 76 82 84 75 72 73 78 90 70 70 78 72 75 82 86 96 94 126
25 23 28 37 42 47 51 55 59 65 69 74 76 77 80 79 72 67 69 72 76 77 74 74 75 83 91 89 83 79 75 63 91 79 75 75 74 74 74 85 86 91 113
21 21 28 34 38 45 48 52 56 63 67 71 75 76 79 86 73 69 71 75 70 72 70 70 67 84 70 68 73 81 75 87 84 74 92 95 90 85 85 86 107 93 106
16 19 26 30 36 42 48 51 54 58 65 72 77 75 83 86 75 69 68 79 79 79 78 82 79 74 69 75 72 76 79 87 88 91 98 102 98 98 92 84 84 61 127
12 17 22 27 34 41 42 49 56 55 60 69 78 83 84 79 83 62 74 74 78 79 81 81 79 66 63 58 60 72 77 67 75 68 77 87 90 91 88 84 93 98 122
12 16 18 24 31 37 42 47 51 56 63 73 78 83 86 82 72 72 77 72 74 82 85 84 82 66 65 56 55 56 65 70 69 75 81 85 94 90 83 73 96 107 143
13 12 14 20 27 33 38 45 49 53 61 72 76 84 91 94 80 82 84 83 81 77 72 70 72 72 73 66 56 58 58 68 71 72 82 86 89 88 74 61 94 117 141
12 8 11 14 19 27 36 42 45 52 59 66 72 77 83 88 95 96 97 99 81 75 74 69 56 54 58 62 59 50 53 68 78 80 76 71 74 80 66 73 118 123 122
11 6 8 14 19 25 32 37 42 43 43 49 57 61 80 86 87 82 82 81 68 74 57 39 24 24 32 36 46 48 44 55 56 63 55 61 73 73 61 108 118 115 108
9 4 4 13 21 25 23 22 32 38 41 41 42 48 60 61 71 74 74 64 59 61 52 61 52 38 28 26 30 28 39 47 43 50 66 73 76 68 67 102 117 122 116
9 4 3 10 17 21 27 32 35 28 37 42 44 50 52 58 67 71 72 60 59 65 77 70 71 65 54 42 40 31 21 30 54 66 61 68 66 57 80 93 107 117 107
10 3 3 8 13 18 23 30 36 41 44 41 43 55 63 65 66 69 80 81 87 88 88 81 74 80 71 58 52 47 34 26 33 39 43 48 57 63 87 97 105 108 111
11 4 4 7 10 14 21 27 31 34 37 43 44 47 61 62 71 78 86 96 98 96 93 91 82 82 81 71 60 57 45 35 25 25 34 43 56 80 90 104 102 97 114
15 8 3 4 6 11 16 20 25 30 35 42 50 56 64 63 75 86 89 92 96 98 97 92 96 82 92 86 75 72 56 40 29 20 23 42 68 89 92 97 107 97 110
19 12 8 5 7 10 15 22 27 30 33 39 44 50 46 59 69 77 83 87 89 94 100 101 96 99 96 100 96 88 73 49 32 21 11 43 70 87 88 95 103 108 115
22 17 13 10 8 9 13 19 22 26 32 34 37 41 45 53 61 67 73 79 84 86 91 100 103 107 104 107 104 96 90 65 44 28 11 33 57 81 91 95 99 100 103
24 21 18 15 11 9 13 14 17 21 28 31 35 39 46 52 57 62 67 72 79 85 89 95 103 109 113 107 101 101 98 78 54 35 19 21 51 67 87 91 97 97 100
28 25 21 17 13 11 10 10 14 20 23 26 31 36 43 48 52 56 60 67 74 78 83 89 99 105 115 112 105 101 101 79 54 35 18 10 35 59 77 80 81 89 95
30 25 22 19 14 11 7 10 14 16 18 22 28 33 38 43 46 51 54 58 65 73 78 82 87 98 107 113 106 100 102 93 74 48 31 10 16 40 52 60 68 75 82
30 26 24 19 15 11 8 8 10 11 14 20 26 31 36 40 44 48 52 56 58 62 69 74 79 87 96 108 111 102 98 100 90 78 55 37 15 19 37 51 56 65 76
Wind_Direction_850mb
248 263 278 289 298 307 312 313 315 316 315 315 312 311 311 311 311 307 304 303 299 294 287 280 278 276 271 278 267 250 255 255 258 261 262 265 269 270 246 247 242 230 234
245 260 277 290 298 306 313 315 318 315 313 312 312 311 311 311 311 308 307 304 297 293 286 281 277 276 273 274 265 265 264 253 271 259 255 264 267 271 264 258 260 231 229
246 260 276 289 302 310 314 316 315 313 313 314 312 312 313 313 311 310 307 302 298 290 286 281 279 276 276 274 275 258 259 253 269 247 259 266 267 264 265 259 262 261 218
245 260 277 293 305 311 314 316 316 316 317 317 315 314 316 315 313 312 306 303 303 296 291 285 281 277 279 278 272 261 254 262 276 237 255 265 272 260 271 267 262 228 199
245 263 282 297 306 312 316 319 321 321 321 319 318 317 320 319 316 314 305 300 295 290 286 284 282 283 278 273 272 268 260 259 268 252 255 261 267 269 264 262 249 240 176
244 266 283 300 310 317 321 325 326 323 323 321 320 320 321 320 322 310 304 299 294 289 288 287 286 285 281 271 266 262 257 258 256 267 249 257 262 265 264 263 253 251 171
246 267 292 306 315 322 327 327 326 324 323 321 321 324 324 329 328 314 308 300 298 296 292 289 286 283 279 277 274 262 253 254 246 246 256 260 262 264 259 264 255 268 182
241 271 298 312 321 326 327 327 327 325 323 323 324 328 330 333 332 318 315 307 303 296 291 287 290 291 291 276 273 265 254 249 239 240 241 254 261 265 263 269 255 257 171
243 281 307 317 324 323 326 327 328 324 324 324 329 334 335 339 334 322 319 314 312 308 304 293 285 285 285 276 266 264 261 239 238 246 249 252 258 268 264 271 254 200 163
246 293 309 315 321 324 328 327 328 325 327 331 332 341 345 341 332 323 326 316 309 310 304 294 288 284 285 280 262 258 258 248 242 244 244 251 257 264 262 266 265 245 163
259 295 307 317 324 324 328 331 328 328 333 335 339 346 344 341 334 328 326 321 315 310 304 300 296 289 284 288 262 261 254 259 254 252 256 257 260 261 264 266 247 243 173
272 296 308 319 325 326 331 332 329 335 340 343 347 342 344 341 334 331 329 324 317 308 302 294 287 282 284 285 272 263 262 249 251 257 255 256 264 256 264 246 245 218 190
252 284 304 321 321 326 332 333 336 343 349 348 344 342 343 344 337 338 334 329 323 316 307 296 284 280 280 276 265 258 254 244 248 249 253 258 254 267 267 238 223 210 183
218 248 285 307 323 336 339 339 345 351 354 349 341 340 340 342 341 342 338 335 335 334 324 305 288 286 282 275 273 270 240 232 242 247 247 257 262 269 256 227 193 184 176
197 218 297 327 344 350 350 348 354 358 354 341 343 342 349 341 344 340 339 338 341 341 342 5 352 305 295 292 283 278 260 244 254 242 247 256 265 269 264 190 184 176 173
196 205 327 343 349 348 0 15 1 -0 359 359 352 348 351 346 347 349 349 349 354 355 18 16 11 5 348 328 307 276 244 254 252 245 248 253 264 257 222 181 176 173 175
205 199 7 3 359 358 359 8 11 22 9 6 7 10 1 358 0 1 2 11 12 16 23 17 7 7 1 353 341 328 283 228 235 246 250 257 260 249 194 179 174 178 179
213 209 34 10 11 6 8 13 11 9 10 17 19 30 23 20 17 14 20 24 29 31 22 17 5 5 4 359 353 341 318 284 251 241 249 259 239 222 185 180 175 175 175
202 164 54 27 26 16 19 18 15 13 15 15 18 28 31 24 30 30 30 30 27 26 23 13 16 4 6 5 359 351 341 330 303 276 252 241 224 210 193 186 180 178 177
179 162 113 57 38 27 27 26 24 20 20 22 22 24 23 19 27 30 31 29 29 27 24 19 13 8 7 6 9 1 357 350 334 308 230 227 216 203 197 192 188 182 183
169 157 153 140 76 39 29 29 26 22 27 28 27 28 23 25 30 30 30 29 27 27 25 24 14 18 7 12 15 9 3 355 341 325 234 196 210 204 201 196 192 191 190
166 160 160 136 100 64 46 38 32 25 27 29 33 32 31 31 32 32 31 30 29 29 29 27 23 22 16 17 17 13 3 1 352 339 301 194 194 206 207 206 201 194 196
165 165 157 145 127 100 67 51 40 35 33 27 28 31 32 33 33 31 29 29 28 27 29 30 28 28 26 22 24 22 6 4 359 348 328 222 196 200 205 202 200 193 193
170 163 155 149 141 121 98 81 58 47 41 36 32 31 35 34 32 31 28 29 29 27 27 28 30 30 28 23 23 26 20 13 11 7 353 268 212 201 210 206 201 202 198
172 165 159 155 149 136 120 89 72 57 45 40 40 35 34 34 32 31 29 27 27 26 25 25 28 29 29 23 25 25 30 24 24 24 25 26 192 204 204 208 210 209 208
170 164 164 161 154 150 135 99 81 61 46 39 36 33 31 30 30 28 27 25 23 24 24 22 24 27 29 24 21 26 30 31 30 34 37 43 67 159 195 206 207 208 209